This is the latest recevied weather packets stored in our database for station/object W1REE. If no packets are shown the sender has not sent any weather packets the latest 1 day(s).
| Time | Temp. | Humidity | Pressure | Rain* | Wind** | Luminosity | Snow |
|---|---|---|---|---|---|---|---|
| 1836274814 | 16.11° C | 45% | 1031.6 hPa | 0 mm | 0 m/s | 0 W/m² | - |
| 1836274512 | 16.11° C | 44% | 1031.7 hPa | 0 mm | 0.89 m/s, 281° | 0 W/m² | - |
| 1836274365 | 16.11° C | 46% | 1031.7 hPa | 0 mm | 0.45 m/s, 282° | 0 W/m² | - |
| 1836274210 | 16.11° C | 44% | 1031.6 hPa | 0 mm | 0 m/s | 0 W/m² | - |
| 1836273910 | 16.67° C | 43% | 1031.8 hPa | 0 mm | 0.45 m/s, 283° | 0 W/m² | - |
| 1778028684 | 1.67° C | 97% | 1014.1 hPa | 1.78 mm | 0 m/s | 6 W/m² | - |
| 1778028381 | 1.67° C | 97% | 1014 hPa | 0 mm | 0.89 m/s, 28° | 8 W/m² | - |
| 1778028078 | 2.22° C | 97% | 1013.9 hPa | 1.78 mm | 0 m/s | 9 W/m² | - |
| 1778027774 | 2.22° C | 97% | 1014.1 hPa | 1.78 mm | 0 m/s | 11 W/m² | - |
| 1778027470 | 2.22° C | 97% | 1014.2 hPa | 0 mm | 0 m/s | 8 W/m² | - |
| 1778027166 | 2.22° C | 97% | 1014.2 hPa | 0 mm | 0 m/s | 8 W/m² | - |
| 1778026863 | 2.22° C | 97% | 1014.1 hPa | 1.27 mm | 0 m/s | 8 W/m² | - |
| 1778026559 | 2.22° C | 97% | 1014.1 hPa | 1.27 mm | 0 m/s | 12 W/m² | - |
| 1778026256 | 2.22° C | 97% | 1014 hPa | 0 mm | 0.45 m/s, 11° | 12 W/m² | - |
| 1778025953 | 2.22° C | 97% | 1013.6 hPa | 0 mm | 0 m/s | 10 W/m² | - |
| 1778025651 | 2.22° C | 97% | 1013.5 hPa | 0 mm | 0 m/s | 11 W/m² | - |
| 1778025349 | 2.22° C | 97% | 1013.5 hPa | 0 mm | 0 m/s | 14 W/m² | - |
| 1778025045 | 2.22° C | 97% | 1013.6 hPa | 0 mm | 0 m/s | 15 W/m² | - |
| 1778024742 | 2.22° C | 96% | 1013.4 hPa | 0 mm | 0 m/s | 25 W/m² | - |
| 1778024439 | 2.22° C | 96% | 1013.3 hPa | 0 mm | 0.45 m/s, 24° | 29 W/m² | - |
| 1778024137 | 2.22° C | 96% | 1013.1 hPa | 0 mm | 0 m/s | 32 W/m² | - |
| 1778023834 | 2.22° C | 96% | 1013 hPa | 1.78 mm | 0 m/s | 29 W/m² | - |
| 1778023532 | 2.22° C | 96% | 1012.9 hPa | 1.78 mm | 0 m/s | 35 W/m² | - |
| 1778023229 | 2.22° C | 96% | 1013 hPa | 1.27 mm | 0.45 m/s, 43° | 30 W/m² | - |
| 1778022926 | 2.22° C | 96% | 1012.8 hPa | 1.27 mm | 0.45 m/s, 1° | 32 W/m² | - |
* Rain latest hour (hover to see other rain measurements)
** Current wind speed in m/s (hover to see current wind gust speed)